Regional Weather Roundup
Issued by NWS

Home | Current Version | Previous Version | Text Only | Print | Product List | Glossary On
Versions: 1 2 3 4 5 6 7 8 9 10 11 12 13 14 15 16 17 18 19 20 21 22 23 24 25 26 27 28 29 30 31 32 33 34 35 36 37 38 39 40 41 42 43 44 45 46 47 48 49 50
000
ASUS43 KBIS 190659
RWRND

NORTH DAKOTA REGIONAL WEATHER ROUNDUP
NATIONAL WEATHER SERVICE BISMARCK ND
200 AM CDT FRI SEP 19 2014

NOTE: "FAIR" INDICATES FEW OR NO CLOUDS BELOW 12,000 FEET WITH NO
SIGNIFICANT WEATHER AND/OR OBSTRUCTIONS TO VISIBILITY.


NDZ001>003-009>011-017-190800-
NORTHWEST NORTH DAKOTA

CITY           SKY/WX    TMP DP  RH WIND       PRES   REMARKS
WILLISTON      CLOUDY    62  54  74 SW7       29.59F
MINOT          CLOUDY    70  60  70 SW14      29.56F
$$

NDZ018>021-031>035-040>046-190800-
SOUTHWEST NORTH DAKOTA

CITY           SKY/WX    TMP DP  RH WIND       PRES   REMARKS
BISMARCK       CLOUDY    67  60  78 S8        29.65F
DICKINSON      LGT RAIN  69  54  58 W12       29.65F
GARRISON         N/A     66  64  93 SW8       29.60F
HETTINGER ARPT CLOUDY    65  54  67 W5        29.72F
$$

NDZ004>008-012>016-024-026-027-054-190800-
NORTHEAST NORTH DAKOTA

CITY           SKY/WX    TMP DP  RH WIND       PRES   REMARKS
GRAND FORKS    CLOUDY    67  57  70 S22G31    29.63F
GRND FRKS AFB  CLOUDY    68  60  75 SW23G35   29.62F
DEVILS LAKE    CLOUDY    68  57  68 S23G29    29.60S
$$

NDZ022-023-025-028>030-036>039-047>053-190800-
SOUTHEAST NORTH DAKOTA

CITY           SKY/WX    TMP DP  RH WIND       PRES   REMARKS
FARGO          CLOUDY    66  55  67 S15G24    29.75F
$$




USA.gov is the U.S. government's official web portal to all federal, state and local government web resources and services.